Starlink 30071

operational
NORAD ID: 56708 Int'l Des: 2023-067 Owner: SPXS Country: US Constellation: starlink
LEOCIRCULAR

About Starlink 30071

Description loading...

Live Position

Loading 3D Globe...

Upcoming Passes

Altitude History

Altitude vs Time

uPlot chart will show altitude changes over time

Two-Line Element Set

1 56708U 23067W 25349.46901566 .00001886 00000-0 15459-3 0 9994
2 56708 43.0066 11.8675 0001210 266.3983 93.6721 15.02555303142998
Epoch: Dec 15, 2025 • Age: 32 hours

Current Status

Altitude 570.4 km
Velocity 7.58 km/s
Sub-Earth Point -40.24°S, 68.21°W
Launch Date May 19, 2023
Age 2.5 years
Type internet

Technical Details

Classification Payload
Mass 730.00 kg
Dry Mass 700.00 kg
Total Mass 730.00 kg
Length 0.30 m
Diameter 4.10 m
Span 29.00 m
Shape Box + pan
Manufacturer SPXS
Bus Type Starlink V2M
Phase Status In Orbit
Owner/State SPXS/US

Large Constellations

Loading constellations...